FW4376 Weather Reports


time (UTC)temp
F
wind
direction
speed
knots
gust
knots
rain 1hr
in
rain 24hr
in
rain mn
in
humidity
%
barometer
mb
20260509090008 69 131 0.9 7.0 0.00 0.00 0.00 90 1007.8
20260509084502 69 221 0.9 6.1 0.00 0.00 0.00 90 1008.3
20260509083121 69 177 1.7 4.3 0.00 0.00 0.00 89 1008.6
20260509081556 70 111 0.9 3.5 0.00 0.00 0.00 89 1009.6
20260509080059 70 129 0.0 1.7 0.00 0.00 0.00 89 1010.1
20260509074611 69 247 0.0 0.9 0.00 0.00 0.00 89 1010.3
20260509073106 69 137 0.0 0.9 0.00 0.00 0.00 89 1010.7
20260509071558 69 136 0.0 0.9 0.00 0.00 0.00 89 1010.9
20260509070056 69 137 0.0 0.9 0.00 0.00 0.00 88 1010.4
20260509064550 69 134 0.0 1.7 0.00 0.00 0.00 87 1010.1
20260509063059 70 73 0.0 1.7 0.00 0.00 0.00 87 1009.7
20260509061545 70 165 0.0 0.9 0.00 0.00 0.00 86 1010.2
20260509054544 71 245 0.0 0.9 0.00 0.00 0.00 85 1010.5
20260509053054 70 250 0.9 0.9 0.00 0.00 0.00 85 1010.9
20260509051546 70 8 0.0 0.9 0.00 0.00 0.00 85 1011.0
20260509050039 71 109 0.0 2.6 0.00 0.00 0.00 84 1010.1
20260509044538 71 247 0.9 4.3 0.00 0.00 0.00 83 1009.7
20260509043044 72 122 0.9 6.1 0.00 0.00 0.00 82 1009.1
20260509041536 72 167 0.0 1.7 0.00 0.00 0.00 81 1010.6
20260509040045 72 145 0.0 0.9 0.00 0.00 0.00 81 1010.8
20260509034536 72 124 0.0 0.0 0.00 0.00 0.00 81 1010.9
20260509033047 72 122 0.0 0.9 0.00 0.00 0.00 81 1010.2
20260509031533 72 121 0.0 3.5 0.00 0.00 0.00 81 1010.0
20260509030033 72 99 0.0 1.7 0.00 0.00 0.00 81 1010.1
20260509024535 72 218 0.0 1.7 0.00 0.00 0.00 81 1009.8
20260509023032 72 243 0.0 1.7 0.00 0.00 0.00 80 1009.4
20260509021532 72 169 0.9 2.6 0.00 0.00 0.00 80 1009.3
20260509020031 72 171 0.0 1.7 0.00 0.00 0.00 80 1009.2
20260509014532 72 107 0.0 0.9 0.00 0.00 0.00 79 1009.0
20260509013032 72 248 0.0 2.6 0.00 0.00 0.00 79 1008.8
20260509011530 73 122 0.0 1.7 0.00 0.00 0.00 78 1008.7
20260509010035 73 260 0.0 2.6 0.00 0.00 0.00 77 1008.5
20260509004529 73 281 0.9 2.6 0.00 0.00 0.00 76 1008.4
20260509003033 74 290 0.9 4.3 0.00 0.00 0.00 74 1008.3
20260509001530 74 108 0.0 4.3 0.00 0.00 0.00 74 1008.4
20260509000027 74 209 0.9 4.3 0.00 0.00 0.00 73 1008.5
20260508234529 75 138 1.7 4.3 0.00 0.00 0.00 71 1008.8
20260508233032 75 264 0.9 4.3 0.00 0.00 0.00 69 1008.8
20260508231525 76 157 0.9 4.3 0.00 0.00 0.00 70 1008.9
20260508230024 76 213 0.9 7.0 0.00 0.00 0.00 71 1009.1
20260508224524 77 141 1.7 8.7 0.00 0.00 0.00 69 1008.9
20260508223023 79 178 2.6 5.2 0.00 0.00 0.00 67 1008.7
20260508221525 79 245 0.9 6.1 0.00 0.00 0.00 67 1008.6
20260508220021 79 285 0.9 3.5 0.00 0.00 0.00 67 1008.3
20260508214525 77 162 0.9 5.2 0.00 0.00 0.00 70 1008.2
20260508213017 74 261 0.9 3.5 0.00 0.00 0.00 76 1008.9
20260508211518 73 244 0.9 4.3 0.00 0.00 0.00 74 1009.7
20260508210023 75 252 2.6 7.8 0.00 0.00 0.00 70 1010.3
20260508204511 76 240 0.9 5.2 0.00 0.00 0.00 67 1010.3
20260508203010 77 104 0.9 6.1 0.00 0.00 0.00 66 1010.4
20260508201510 79 155 0.9 3.5 0.00 0.00 0.00 63 1010.3
20260508200008 79 242 1.7 7.0 0.00 0.00 0.00 63 1010.3
20260508194509 80 82 1.7 4.3 0.00 0.00 0.00 62 1010.5
20260508193005 81 109 1.7 6.1 0.00 0.00 0.00 61 1010.6
20260508191503 80 255 2.6 7.0 0.00 0.00 0.00 62 1010.9
20260508190003 81 235 2.6 6.1 0.00 0.00 0.00 60 1011.0
20260508184608 80 118 1.7 6.1 0.00 0.00 0.00 60 1010.9
20260508183100 80 110 0.9 4.3 0.00 0.00 0.00 62 1011.2
20260508181558 79 206 2.6 6.1 0.00 0.00 0.00 61 1011.6
20260508180050 78 146 1.7 7.0 0.00 0.00 0.00 63 1011.8
20260508174549 77 238 0.9 4.3 0.00 0.00 0.00 62 1012.1
20260508173044 77 203 1.7 3.5 0.00 0.00 0.00 65 1012.3
20260508171544 74 117 0.9 4.3 0.00 0.00 0.00 66 1012.8
20260508170036 74 92 0.9 5.2 0.00 0.00 0.00 67 1013.1
20260508164533 72 132 1.7 6.1 0.00 0.00 0.00 68 1013.6
20260508163036 72 236 1.7 6.1 0.00 0.00 0.00 68 1014.0
20260508161546 72 205 0.9 5.2 0.00 0.00 0.00 68 1014.2
20260508160030 72 178 1.7 5.2 0.00 0.00 0.00 67 1014.1
20260508154530 71 244 0.9 4.3 0.00 0.00 0.00 68 1014.4
20260508153049 72 232 2.6 7.0 0.00 0.00 0.00 67 1014.4
20260508151529 72 243 1.7 5.2 0.00 0.00 0.00 67 1014.3
20260508150027 72 116 0.9 4.3 0.00 0.00 0.00 67 1014.3
20260508144525 71 141 0.9 5.2 0.00 0.00 0.00 68 1014.3
20260508143025 70 98 0.9 4.3 0.00 0.00 0.00 69 1014.5
20260508141519 69 174 0.9 6.1 0.00 0.00 0.00 71 1014.6
20260508140016 68 165 0.9 3.5 0.00 0.00 0.00 74 1014.7
20260508134516 66 274 1.7 6.1 0.00 0.00 0.00 76 1014.6
20260508133009 64 127 0.9 2.6 0.00 0.00 0.00 80 1014.6
20260508131506 63 156 0.0 2.6 0.00 0.00 0.00 83 1014.8
20260508130004 62 203 0.0 0.9 0.00 0.00 0.00 84 1014.8
20260508124500 61 141 0.0 0.9 0.00 0.00 0.00 84 1015.0
20260508123100 61 137 0.0 2.6 0.00 0.00 0.00 85 1014.9
20260508121600 60 137 0.0 1.7 0.00 0.00 0.00 87 1014.8
20260508120113 59 131 0.0 0.9 0.00 0.00 0.00 88 1014.8
20260508114604 59 120 0.0 0.9 0.00 0.00 0.00 87 1014.8
20260508113103 59 129 0.0 0.9 0.00 0.00 0.00 87 1015.2
20260508111556 60 69 0.0 0.9 0.00 0.00 0.00 87 1015.6
20260508110104 59 249 0.0 1.7 0.00 0.00 0.00 87 1015.9
20260508104559 59 255 0.0 0.9 0.00 0.00 0.00 86 1014.5
20260508103059 59 91 0.0 1.7 0.00 0.00 0.00 86 1014.1
20260508101555 60 104 0.0 1.7 0.00 0.00 0.00 86 1013.9
20260508100111 60 207 0.0 0.9 0.00 0.00 0.00 85 1014.1
20260508094552 60 220 0.0 0.9 0.00 0.00 0.00 85 1014.1
20260508093050 61 113 0.9 3.5 0.00 0.00 0.00 85 1014.3
20260508091607 61 111 0.0 3.5 0.00 0.00 0.00 87 1014.3